Location: *
(28.3744°N, 81.5492°W)
Time: 03:48:42
(UTC+00:00)

Cosmos 2278 Rocket - Pass Details

Date: 15 June 2025
Orbit: 838 x 846 km, 71.0° (Epoch: 11 July)

Event Time Altitude Azimuth Distance (km) Brightness Sun altitude
Exits shadow 06:58:33 43° 356° (N) 1,168 3.2 -33.8°
Drops below altitude 10° 07:02:22 10° 13° (NNE) 2,460 5.4 -33.4°
Sets 07:04:50 0° 16° (NNE) 3,398 6.4 -33.2°
